[[{"header":{"parameterUnit":"m.s-1","parameterCategory":1,"la1":30.2991,"la2":30.254,"lo1":-89.0895,"lo2":-89.0444,"dy":0.0017,"dx":0.0017,"nx":28,"ny":28,"refTime":"2025-08-03T03:00:00:Z","depth":0,"parameterNumber":2,"parameterNumberName":"U-component_of_WINDS"},"data":[0,0,0,0,0,0,0,0,0,0,0,0,0,0,0,0,0,0,0,0,0,0,0,0,0,0,0,0,0,0,0,0,0,0,0,0,0,0,0,0,0,0,0,0,0,0,0,0,0,0,0,0,0,0,0,0,0,0,-0.6962,-0.6963,0,-0.699,-0.6991,-0.6991,-0.7005,-0.7005,-0.7005,-0.7005,-0.7033,-0.7034,-0.7035,0,0,0,0,0,0,0,0,0,0,0,0,0,-0.692,-0.6921,-0.6962,-0.6963,-0.6963,-0.699,-0.6991,-0.6991,-0.7005,-0.7005,-0.7005,-0.7005,-0.7033,-0.7034,-0.7035,0,0,0,0,0,0,0,0,0,0,0,0,0,-0.6942,-0.6921,-0.6962,-0.6974,-0.6975,-0.699,-0.6991,-0.6991,-0.7005,-0.7005,-0.7005,-0.7005,-0.7033,-0.7034,-0.7035,-0.7041,0,0,-0.7038,-0.7039,0,0,0,0,0,0,0,0,-0.6941,-0.6944,-0.6972,-0.6973,-0.6974,-0.6994,-0.6986,-0.7008,-0.7005,-0.6994,-0.7005,-0.7005,-0.702,-0.7022,-0.7027,-0.7042,-0.7043,-0.7038,-0.7039,-0.7039,-0.704,0,0,0,0,0,0,0,-0.694,-0.6943,-0.6973,-0.6972,-0.6974,-0.6977,-0.698,-0.699,-0.7006,-0.6995,-0.6996,-0.6999,-0.7021,-0.7026,-0.7028,-0.7044,-0.7038,-0.7039,-0.704,-0.704,-0.7065,-0.7065,0,0,0,0,0,0,-0.6936,-0.6942,-0.6973,-0.6974,-0.6957,-0.6978,-0.6981,-0.6988,-0.7006,-0.7009,-0.6999,-0.7,-0.7024,-0.7027,-0.7029,-0.7038,-0.7039,-0.704,-0.7041,-0.7065,-0.7065,-0.7065,0,0,0,0,0,0,-0.6936,-0.6939,-0.6971,-0.6958,-0.6963,-0.6978,-0.6986,-0.6988,-0.6994,-0.701,-0.7012,-0.7002,-0.7025,-0.7028,-0.7038,-0.7039,-0.7041,-0.7042,-0.7065,-0.7065,-0.7065,-0.7055,0,0,0,0,0,0,-0.6934,-0.6939,-0.6941,-0.6958,-0.6963,-0.698,-0.6986,-0.6989,-0.6996,-0.6997,-0.7013,-0.7015,-0.7025,-0.7036,-0.7039,-0.704,-0.7043,-0.7065,-0.7065,-0.7065,-0.7055,-0.7054,-0.7054,0,0,0,0,0,-0.6933,-0.6937,-0.6942,-0.6945,-0.6967,-0.698,-0.6983,-0.6994,-0.6996,-0.6999,-0.7009,-0.7015,-0.7038,-0.7037,-0.704,-0.7042,-0.7065,-0.7065,-0.7065,-0.7055,-0.7054,-0.7054,0,0,0,0,0,0,-0.692,-0.694,-0.6945,-0.6955,-0.6966,-0.6982,-0.6986,-0.6993,-0.7003,-0.7003,-0.7016,-0.702,-0.7029,-0.7036,-0.7035,-0.7049,-0.7052,-0.7053,-0.7044,-0.7043,-0.7042,-0.704,-0.7044,0,0,0,0,0,-0.6919,-0.6928,-0.6944,-0.6952,-0.6957,-0.697,-0.6977,-0.6984,-0.6996,-0.7,-0.7011,-0.7022,-0.7031,-0.7038,-0.7047,-0.7056,-0.706,-0.7059,-0.7058,-0.7057,-0.7058,-0.7063,-0.7063,-0.7065,-0.7065,-0.7065,0,0,-0.6915,-0.6927,-0.6932,-0.6949,-0.6959,-0.6967,-0.6974,-0.6983,-0.699,-0.7002,-0.7012,-0.702,-0.7033,-0.7042,-0.7047,-0.7049,-0.7058,-0.7057,-0.7057,-0.7058,-0.7063,-0.7063,-0.7062,-0.7065,-0.7065,-0.7065,0,0,-0.6914,-0.6924,-0.6931,-0.694,-0.6954,-0.6963,-0.6965,-0.6981,-0.6987,-0.6997,-0.7006,-0.7014,-0.7031,-0.7039,-0.7046,-0.7048,-0.7054,-0.705,-0.7047,-0.7052,-0.7052,-0.7051,-0.7052,-0.7052,-0.7051,-0.7051,-0.7051,0,-0.6909,-0.6923,-0.6934,-0.6943,-0.695,-0.6961,-0.6968,-0.6976,-0.6993,-0.6997,-0.6999,-0.702,-0.7029,-0.7041,-0.7041,-0.7046,-0.7048,-0.7049,-0.7051,-0.7051,-0.7051,-0.7051,-0.7052,-0.705,-0.705,-0.705,-0.705,0,-0.6915,-0.6924,-0.6928,-0.6944,-0.6951,-0.6959,-0.6972,-0.6978,-0.6985,-0.6993,-0.7004,-0.7016,-0.7028,-0.7031,-0.7038,-0.7043,-0.7044,-0.7048,-0.7052,-0.705,-0.7051,-0.7051,-0.705,-0.705,-0.705,-0.705,0,0,-0.6907,-0.6929,-0.693,-0.6937,-0.6953,-0.696,-0.6968,-0.6981,-0.6986,-0.6996,-0.7003,-0.7017,-0.7021,-0.7028,-0.7036,-0.704,-0.704,-0.7044,-0.7044,-0.7042,-0.7047,-0.7044,-0.7044,-0.7044,-0.7045,-0.7045,-0.7046,0,-0.6908,-0.6923,-0.6934,-0.6945,-0.6954,-0.6964,-0.6971,-0.6981,-0.6989,-0.6998,-0.7007,-0.7016,-0.7021,-0.7025,-0.703,-0.7039,-0.7041,-0.7039,-0.7051,-0.7051,-0.7047,-0.7045,-0.7041,-0.7042,-0.7047,-0.7047,-0.7047,0,-0.6912,-0.6922,-0.6934,-0.6949,-0.6953,-0.6959,-0.6971,-0.6979,-0.699,-0.6996,-0.7004,-0.7012,-0.7021,-0.7023,-0.7035,-0.7034,-0.7039,-0.7044,-0.7045,-0.7046,-0.7049,-0.7046,-0.7043,-0.7043,-0.7047,-0.7047,-0.7047,0,-0.6904,-0.6922,-0.6931,-0.6937,-0.6954,-0.6958,-0.6965,-0.6977,-0.6984,-0.6994,-0.6998,-0.7009,-0.7015,-0.7024,-0.7034,-0.7035,-0.7045,-0.7049,-0.705,-0.705,-0.7052,-0.7051,-0.7049,-0.7055,-0.7055,-0.7055,-0.7055,0,-0.6905,-0.6912,-0.6928,-0.6934,-0.6942,-0.6953,-0.6961,-0.6969,-0.6979,-0.6987,-0.6996,-0.7003,-0.7016,-0.7024,-0.7032,-0.7041,-0.7044,-0.7048,-0.705,-0.7047,-0.7047,-0.7051,-0.7051,-0.7055,-0.7055,-0.7055,-0.7055,0,-0.6898,-0.691,-0.692,-0.6936,-0.694,-0.6945,-0.6958,-0.6964,-0.6973,-0.6982,-0.6984,-0.6998,-0.7008,-0.7019,-0.7033,-0.7038,-0.7046,-0.7049,-0.7043,-0.7044,-0.7044,-0.7044,-0.7045,-0.7046,-0.7051,-0.7051,-0.7051,0,-0.6898,-0.6903,-0.6919,-0.6925,-0.6932,-0.6941,-0.6948,-0.6959,-0.6966,-0.6979,-0.6984,-0.6994,-0.7004,-0.7019,-0.703,-0.7041,-0.7044,-0.7043,-0.7046,-0.7042,-0.7044,-0.7043,-0.7044,-0.7043,-0.7043,-0.7043,-0.7043,0,-0.6896,-0.6901,-0.691,-0.6921,-0.6929,-0.6938,-0.6948,-0.6952,-0.6966,-0.6972,-0.6983,-0.699,-0.7004,-0.7015,-0.7026,-0.7034,-0.704,-0.7042,-0.7043,-0.704,-0.7036,-0.7038,-0.7041,-0.7042,-0.7042,-0.7042,-0.7042,-0.7042,-0.6892,-0.6898,-0.6909,-0.6919,-0.6928,-0.6937,-0.6943,-0.6952,-0.6961,-0.6973,-0.698,-0.699,-0.7001,-0.7018,-0.7025,-0.7033,-0.7035,-0.7037,-0.7037,-0.7037,-0.7036,-0.7034,-0.7035,-0.7035,-0.7035,-0.7035,-0.7036,0,-0.6891,-0.6899,-0.6908,-0.6921,-0.6929,-0.6934,-0.6945,-0.6951,-0.696,-0.697,-0.6979,-0.6991,-0.7001,-0.7013,-0.7024,-0.7028,-0.7031,-0.703,-0.703,-0.7032,-0.7034,-0.7032,-0.7027,-0.7027,-0.7027,-0.7027,-0.7027,-0.7027,-0.6891,-0.69,-0.6906,-0.6919,-0.6928,-0.6938,-0.6943,-0.6951,-0.696,-0.6972,-0.6981,-0.6988,-0.6999,-0.7011,-0.702,-0.7023,-0.7027,-0.7025,-0.7029,-0.7031,-0.7032,-0.7032,-0.7031,-0.7026,-0.7026,-0.7026,-0.7026,-0.7026]},{"header":{"parameterUnit":"m.s-1","parameterCategory":1,"la1":30.2991,"la2":30.254,"lo1":-89.0895,"lo2":-89.0444,"dy":0.0017,"dx":0.0017,"nx":28,"ny":28,"refTime":"2025-08-03T03:00:00:Z","depth":0,"parameterNumber":3,"parameterNumberName":"V-component_of_WINDS"},"data":[0,0,0,0,0,0,0,0,0,0,0,0,0,0,0,0,0,0,0,0,0,0,0,0,0,0,0,0,0,0,0,0,0,0,0,0,0,0,0,0,0,0,0,0,0,0,0,0,0,0,0,0,0,0,0,0,0,0,1.5723,1.5724,0,1.5767,1.5767,1.5768,1.5826,1.5827,1.5828,1.5829,1.587,1.587,1.587,0,0,0,0,0,0,0,0,0,0,0,0,0,1.5684,1.5684,1.5723,1.5724,1.5724,1.5767,1.5768,1.5768,1.5826,1.5827,1.5828,1.5829,1.587,1.587,1.587,0,0,0,0,0,0,0,0,0,0,0,0,0,1.5712,1.5685,1.5723,1.5758,1.5762,1.5767,1.5768,1.5768,1.5826,1.5827,1.5829,1.583,1.587,1.587,1.587,1.5843,0,0,1.5871,1.5871,0,0,0,0,0,0,0,0,1.571,1.5713,1.5753,1.5756,1.576,1.5793,1.5769,1.5793,1.5825,1.5801,1.5829,1.5831,1.5843,1.5845,1.585,1.5845,1.5847,1.5871,1.5871,1.5871,1.5871,0,0,0,0,0,0,0,1.5708,1.5711,1.574,1.5753,1.5758,1.577,1.5776,1.5774,1.5813,1.5803,1.5808,1.5812,1.5845,1.585,1.5852,1.5847,1.5871,1.5871,1.5871,1.5872,1.5818,1.5817,0,0,0,0,0,0,1.5701,1.5709,1.5739,1.5742,1.5738,1.577,1.5776,1.5781,1.5813,1.582,1.5811,1.5815,1.5849,1.5851,1.5853,1.5822,1.5871,1.5872,1.5872,1.582,1.5818,1.5816,0,0,0,0,0,0,1.57,1.5704,1.5737,1.5727,1.5732,1.5769,1.5774,1.5781,1.5786,1.5819,1.5826,1.5809,1.585,1.5853,1.5845,1.5824,1.5872,1.5872,1.5822,1.5819,1.5817,1.5759,0,0,0,0,0,0,1.5699,1.5703,1.5694,1.5726,1.5732,1.5729,1.5772,1.578,1.5786,1.5792,1.5819,1.5825,1.5851,1.5844,1.5845,1.5825,1.5872,1.5824,1.5821,1.5818,1.5763,1.5755,1.5748,0,0,0,0,0,1.5697,1.5676,1.5694,1.5697,1.5723,1.5728,1.5732,1.5763,1.5785,1.5775,1.5796,1.5824,1.5826,1.5843,1.5844,1.5824,1.5825,1.5821,1.5818,1.5766,1.5756,1.5748,0,0,0,0,0,0,1.564,1.5681,1.5701,1.569,1.5705,1.5738,1.5728,1.5752,1.5761,1.5766,1.5803,1.5809,1.5795,1.5809,1.5827,1.5798,1.5829,1.5826,1.579,1.5781,1.5773,1.577,1.5872,0,0,0,0,0,1.5626,1.5629,1.5664,1.565,1.5657,1.5691,1.5694,1.5717,1.5734,1.5741,1.5761,1.5775,1.5779,1.5781,1.5786,1.5765,1.577,1.5752,1.5744,1.5738,1.5734,1.5722,1.5713,1.5804,1.5804,1.5805,0,0,1.5598,1.562,1.562,1.5639,1.5654,1.5654,1.5696,1.5695,1.5694,1.574,1.5734,1.5749,1.5767,1.5751,1.5746,1.5762,1.571,1.5733,1.5728,1.5728,1.5717,1.5708,1.5701,1.5802,1.5802,1.5803,0,0,1.5545,1.5563,1.5553,1.5567,1.5588,1.561,1.5608,1.5636,1.5648,1.5643,1.5676,1.5675,1.5682,1.5692,1.5699,1.5647,1.5672,1.5647,1.5608,1.5596,1.5588,1.5582,1.5562,1.5554,1.5644,1.5643,1.5643,0,1.5506,1.5509,1.5544,1.554,1.5547,1.5589,1.5577,1.5588,1.561,1.5612,1.5631,1.5638,1.5653,1.564,1.5627,1.5631,1.5627,1.5644,1.5587,1.5581,1.5576,1.5557,1.5549,1.564,1.5641,1.5641,1.5641,0,1.5459,1.546,1.5449,1.5469,1.5475,1.5467,1.5498,1.5499,1.5521,1.554,1.5531,1.5551,1.556,1.5558,1.558,1.5547,1.5556,1.558,1.5613,1.5563,1.5546,1.5539,1.5636,1.5637,1.5638,1.5639,0,0,1.5374,1.5412,1.5407,1.5415,1.5441,1.5442,1.5434,1.5444,1.5443,1.5455,1.5449,1.5452,1.5473,1.548,1.5502,1.5491,1.5446,1.5516,1.5517,1.5501,1.5409,1.539,1.5382,1.5463,1.5462,1.5461,1.5407,0,1.5325,1.5316,1.5346,1.5329,1.5328,1.5367,1.536,1.5374,1.5391,1.5392,1.541,1.5411,1.544,1.5444,1.5435,1.5454,1.5428,1.5458,1.5455,1.5455,1.5449,1.5373,1.5354,1.5302,1.5401,1.54,1.5399,0,1.5268,1.5277,1.526,1.5284,1.5285,1.5279,1.5288,1.529,1.5305,1.5318,1.5324,1.535,1.5342,1.5373,1.5361,1.5381,1.5381,1.539,1.5389,1.5389,1.5423,1.537,1.5286,1.5278,1.5389,1.539,1.539,0,1.5204,1.5213,1.5203,1.521,1.5238,1.5232,1.5244,1.5261,1.5263,1.5271,1.5273,1.5279,1.5282,1.5286,1.5311,1.5332,1.5296,1.533,1.5304,1.5304,1.5295,1.5295,1.5209,1.5296,1.5297,1.5297,1.5297,0,1.5147,1.5134,1.5175,1.5169,1.5155,1.5188,1.5173,1.5188,1.5202,1.5198,1.5231,1.5226,1.5261,1.5259,1.5279,1.5265,1.5266,1.5275,1.528,1.5271,1.527,1.5272,1.5276,1.5295,1.5295,1.5296,1.5296,0,1.5074,1.5101,1.5093,1.512,1.5126,1.5115,1.5137,1.5131,1.515,1.5144,1.5144,1.5173,1.5172,1.5198,1.5203,1.5216,1.5192,1.5205,1.5187,1.5191,1.5164,1.5165,1.5075,1.5064,1.5159,1.5158,1.5158,0,1.5035,1.5026,1.5052,1.5052,1.5062,1.5061,1.5064,1.5096,1.5097,1.5112,1.5104,1.5106,1.5109,1.5105,1.5125,1.5128,1.514,1.5108,1.5141,1.5131,1.5138,1.5138,1.5136,1.5101,1.51,1.5099,1.5098,0,1.4962,1.4976,1.4979,1.4986,1.4989,1.4996,1.5005,1.5002,1.5036,1.5036,1.5036,1.5038,1.5042,1.5043,1.5049,1.5059,1.5083,1.5088,1.5082,1.5072,1.5062,1.5066,1.5168,1.509,1.509,1.5091,1.5091,1.5092,1.4905,1.4897,1.4914,1.4916,1.4926,1.4933,1.4928,1.4946,1.4946,1.4953,1.4971,1.4967,1.4979,1.499,1.4998,1.4994,1.5009,1.5001,1.4999,1.4996,1.499,1.5063,1.4995,1.4995,1.4996,1.4996,1.4996,0,1.4832,1.4844,1.4846,1.4857,1.4858,1.4881,1.4892,1.489,1.4887,1.4897,1.49,1.4898,1.4898,1.4917,1.492,1.4912,1.4923,1.4912,1.4912,1.4914,1.4977,1.4982,1.4903,1.4903,1.4903,1.4903,1.4903,1.4903,1.4795,1.4783,1.4798,1.4791,1.4803,1.48,1.4803,1.4809,1.4817,1.4814,1.4815,1.4828,1.4841,1.4844,1.4844,1.485,1.4848,1.4832,1.4841,1.49,1.4909,1.4918,1.4922,1.4832,1.4832,1.4778,1.4778,1.4777]}]]